Regional Weather Roundup
Issued by NWS

Home | Current Version | Previous Version | Graphics & Text | Print | Product List | Glossary On
Versions: 1 2 3 4 5 6 7 8 9 10 11 12 13 14 15 16 17 18 19 20 21 22 23 24 25 26 27 28 29 30 31 32 33 34 35 36 37 38 39 40 41 42 43 44 45 46 47 48 49 50
000
ASUS43 KFSD 031110
RWRSD

WEATHER ROUNDUP FOR SOUTH DAKOTA
NATIONAL WEATHER SERVICE SIOUX FALLS SD
600 AM CDT THU SEP 03 2015

NOTE: "FAIR" INDICATES FEW OR NO CLOUDS BELOW 12,000 FEET WITH NO
SIGNIFICANT WEATHER AND/OR OBSTRUCTIONS TO VISIBILITY.


SDZ001>005-009-010-012>017-031200-
NORTHWEST AND NORTH CENTRAL SOUTH DAKOTA

CITY           SKY/WX    TMP DP  RH WIND       PRES   REMARKS
BUFFALO          N/A     72  45  37 CALM      29.66S
MOBRIDGE       CLEAR     68  32  26 SE9       29.68R
$$

SDZ012>016-024>037-041>051-057-063-072>074-031200-
SOUTHWEST AND SOUTH CENTRAL SOUTH DAKOTA

CITY           SKY/WX    TMP DP  RH WIND       PRES   REMARKS
RAPID CTY ARPT PTCLDY    60  47  61 SE3       29.79R
PIERRE         CLEAR     68  61  78 S7        29.72R
CUSTER         CLEAR     58  37  45 NW5       29.98S
ELLSWORTH AFB  PTCLDY    66  46  48 S6        29.78R
PHILIP         CLEAR     65  54  67 CALM      29.74S
PINE RIDGE     CLEAR     71  52  50 SW7       29.84S
WINNER         FAIR      75  60  59 S9        29.76S
$$

SDZ004>011-016>023-039-040-031200-
NORTHEAST SOUTH DAKOTA

CITY           SKY/WX    TMP DP  RH WIND       PRES   REMARKS
ABERDEEN       CLEAR     71  68  90 S9        29.74S
WATERTOWN      CLEAR     70  67  90 SE12      29.81F
BROOKINGS      CLEAR     70  64  83 SE5       29.85R
SISSETON         N/A     71  71 100 S12       29.79S
$$

SDZ017-020-022-023-036>040-048>070-031200-
SOUTHEAST SOUTH DAKOTA

CITY           SKY/WX    TMP DP  RH WIND       PRES   REMARKS
SIOUX FALLS    CLEAR     66  64  93 CALM      29.82S
HURON          CLEAR     70  68  93 SE7       29.76R
CHAMBERLAIN    CLEAR     64  63  96 E3        29.76S
MITCHELL       CLEAR     69  68  96 SE8       29.77S
YANKTON        CLEAR     66  64  94 E7        29.80S
$$

ABBREVIATIONS USED IN REMARKS
   TC - TEMPERATURE IN CELSIUS
  WCI - WIND CHILL INDEX
   HX - HEAT INDEX
  VSB - VISIBILITY




USA.gov is the U.S. government's official web portal to all federal, state and local government web resources and services.